Regional Weather Roundup
Issued by NWS

Home | Current Version | Previous Version | Text Only | Print | Product List | Glossary On
Versions: 1 2 3 4 5 6 7 8 9 10 11 12 13 14 15 16 17 18 19 20 21 22 23 24 25 26 27 28 29 30 31 32 33 34 35 36 37 38 39 40 41 42 43 44 45 46 47 48 49 50
000
ASUS44 KEWX 301603
RWRTX
SOUTH TEXAS REGIONAL WEATHER ROUNDUP
NATIONAL WEATHER SERVICE AUSTIN/SAN ANTONIO TX
1100 AM CDT SUN APR 30 2017

NOTE: "FAIR" INDICATED FEW OR NO CLOUDS BELOW 12,000 FEET WITH NO
SIGNIFICANT WEATHER AND/OR OBSTRUCTIONS TO VISIBILITY.

* - THESE STATIONS ARE NOT NWS OR FAA STATIONS...AND ARE NOT SUBJECT
    TO NWS AND FAA QUALITY CONTROL.

TXZ171-172-183>190-301700-
TEXAS HILL COUNTRY AND EDWARDS PLATEAU

CITY           SKY/WX    TMP DP  RH WIND       PRES   REMARKS
JUNCTION       SUNNY     58  29  33 W13G22    30.01F
*LLANO         SUNNY     59  34  38 W13G24    30.01S
BURNET         SUNNY     57  33  40 W18G30    29.98S
*HORSESHOE BAY SUNNY     60  35  38 NW14G20   29.98S
*KERRVILLE     SUNNY     59  35  40 NW16G25   29.99F
*FREDERICKSBRG SUNNY     56  31  39 NW20G25   29.99S
*ROCKSPRINGS   SUNNY     55  32  41 NW10      30.05F
*BOERNE STAGE  SUNNY     59  32  36 NW16G23   30.00R
*CASTROVILLE   SUNNY     64  35  33 NW14G25   30.01S
HONDO          SUNNY     66  38  35 NW15      30.01R
*UVALDE        SUNNY     63  35  35 NW15G21   30.05R
DEL RIO        SUNNY     62  31  31 NW18G25   30.06S
LAUGHLIN AFB   NOT AVBL
CARRIZO SPRGS  SUNNY     64  34  32 N14G24    30.02F
*EAGLE PASS    NOT AVBL
$$

TXZ173-191>194-202-209-217>225-228-301700-
CENTRAL AND SOUTH CENTRAL TEXAS

CITY           SKY/WX    TMP DP  RH WIND       PRES   REMARKS
GEORGETOWN     SUNNY     61  36  39 W20G25    29.96R
AUSTIN/BERGSTM MOSUNNY   64  38  38 NW12G24   29.97R
AUSTIN/MABRY   SUNNY     62  37  39 NW13G28   29.97R
*AUSTIN/EXEC   SUNNY     61  37  41 W17       29.97R
*LAGO VISTA    SUNNY     59  33  37 W16G37    29.97R
SAN MARCOS     SUNNY     64  37  36 NW17G24   29.98R
NEW BRAUNFELS  SUNNY     66  38  35 NW17      29.97R
RANDOLPH AFB   SUNNY     64  37  35 NW18G25   29.98R
PT SAN ANTONIO SUNNY     65  38  36 NW17G23   29.97S
SAN ANTONIO    MOSUNNY   65  37  35 NW15G24   29.99R
STINSON FIELD  SUNNY     66  37  34 NW9       29.98R
*LA GRANGE     CLOUDY    61  42  50 W13G23    29.96R
*GIDDINGS      CLOUDY    59  41  51 NW8G20    29.97R
*GONZALES      CLOUDY    64  43  46 MISG      29.99R
$$

TXZ163>164-176>182-195>201-210>213-226-227-235-301700-
SOUTHEAST TEXAS

CITY           SKY/WX    TMP DP  RH WIND       PRES   REMARKS
COLLEGE STN    CLOUDY    57  40  52 W12G22    29.96R
*BRYAN         CLOUDY    56  39  54 NW14G21   29.97R
*CALDWELL      NOT AVBL
*CROCKETT      CLOUDY    54  41  62 W12       29.95R
*BRENHAM       CLOUDY    59  43  55 NW13G18   29.98R
HUNTSVILLE     CLOUDY    56  41  57 W10G18    29.95R
CONROE         CLOUDY    59  46  62 NW14      29.95R
HOUSTON BUSH   CLOUDY    63  49  60 NW14      29.94R
HOUSTON HOBBY  CLOUDY    63  47  55 NW15      29.93R
*HOUSTON SW AP CLOUDY    61  46  57 NW14G21   29.96R
PEARLAND       CLOUDY    65  47  52 NW10G20   29.95R
HOUSTON HOOKS  CLOUDY    60  41  49 NW12      29.95R
ELLINGTON FLD  CLOUDY    66  48  52 NW14G22   29.96R
SUGAR LAND     CLOUDY    65  49  56 NW13      29.95R
*HOUSTON EXEC  CLOUDY    59  41  51 NW13G22   29.97R
*CLEVELAND MUN CLOUDY    61  51  70 NW7       29.93R
*WHARTON       PTSUNNY   63  44  51 NW16      29.98R
*COLUMBUS      CLOUDY    59  42  52 NW12      29.99R
*EAGLE LAKE    CLOUDY    63  42  47 NW13G21   29.97S
$$

TXZ214>216-236>238-301700-
THE UPPER TEXAS COAST

CITY           SKY/WX    TMP DP  RH WIND       PRES   REMARKS
*ORANGE        CLOUDY    64  56  75 NW6       29.92R
PORT ARTHUR    CLOUDY    64  50  60 NW10      29.90R
GALVESTON      CLOUDY    69  51  52 NW16G22   29.93R
ANGLETON       CLOUDY    65  49  56 NW10G20   29.95R
*BAY CITY      CLOUDY    65  50  59 NW13G20   29.95S
PALACIOS       PTSUNNY   65  41  41 NW22G33   29.97R
$$

TXZ229>234-239>247-301700-
TEXAS COASTAL BEND AND RIO GRANDE PLAINS

CITY           SKY/WX    TMP DP  RH WIND       PRES   REMARKS
VICTORIA       PTSUNNY   64  43  46 NW16G23   29.98R
*BEEVILLE      SUNNY     69  43  38 NW14G20   30.00R
ROCKPORT       MOSUNNY   70  49  47 NW16      29.98R
*PORT ARANSAS  MOSUNNY   68  48  47 NW16      29.98R
*PORT LAVACA   PTSUNNY   65  47  52 NW20G25   29.98S
*INGLESIDE     PTSUNNY   71  48  44 NW21G28   29.98R
CORPUS CHRISTI MOSUNNY   72  48  42 N20       29.98R
CORPUS NAS     NOT AVBL
*ROBSTOWN      PTSUNNY   72  42  33 NW15      30.00R
ALICE          SUNNY     73  36  25 N14G22    29.99R
KINGSVILLE NAS PTSUNNY   74  45  35 NW16      29.99R
COTULLA        SUNNY     71  30  21 NW20G28   30.02R
*FAITH RANCH   SUNNY     68  32  26 NW17G28   30.04S
LAREDO         SUNNY     70  36  28 NW20G25   30.04R
$$

TXZ248>255-301700-
DEEP SOUTH TEXAS

CITY           SKY/WX    TMP DP  RH WIND       PRES   REMARKS
BROWNSVILLE    SUNNY     79  41  25 NW17G25   29.97R
PORT ISABEL    SUNNY     76  47  35 N20       29.96R
*SOUTH PADRE   NOT AVBL
HARLINGEN      SUNNY     78  42  27 N15       29.98R
*HEBBRONVILLE  SUNNY     67  33  27 NW16G23   30.03R
MCALLEN        SUNNY     81  40  23 NW12      30.00R
*WESLACO       SUNNY     76  40  26 N12G18    29.98R
FALFURRIAS     SUNNY     73  33  22 N14G24    30.00R
EDINBURG       SUNNY     78  36  21 N9G17     30.00R
*ZAPATA        SUNNY     70  35  27 NW17G25   30.03R
$$

TXZ213>215-236>238-242>244-246-247-251-254-255-301700-
CMAN STATIONS

STATION/POSITION TIME  TEMP    WIND        PRES    WAVE
                       AIR SEA DIR/SP/G            HT/PER
                 (UTC) (F)     (DEG/KT/KT) (MB)    (FT/S)
SABINE PASS      1530   64 78  310/  9/ 15 1013.6
SEA RIM ST PARK  1500   62     320/ 11/ 13 1012.5
NORTH JETTY/GLS  1524      75  310/ 17/ 23 1011.9
EAGLE POINT      1524   65 76  340/ 10/ 14 1012.8
MORGANS POINT    1530   64 75  310/ 12/ 16 1013.0
MISSION/ARANSAS  1500   66                 1015.0
PORT O`CONNOR    1524   64     330/ 20/ 25 1014.6
PORT ARANSAS     1500   66 76  330/ 19/ 22 1014.6
MALAQUITE BEACH  1524   68 77  330/ 15/ 21 1015.6
BAFFIN BAY       1524   68 75  280/ 17/ 25 1015.3
PORT ISABEL      1524   72 80  350/ 17/ 23 1014.3
$$

GMZ080-GMZ150>470-301700-
OFFSHORE BUOY REPORTS

STATION/POSITION TIME  TEMP    WIND        PRES    WAVE
                       AIR SEA DIR/SP/G            HT/PER
                 (UTC) (F)     (DEG/KT/KT) (MB)    (FT/S)
20 E GALVESTON   1450   66 75  330/ 19/ 25 1011.3    5/ 9
90 E PT ARANSAS  1450   70 76  330/ 21/ 27 1011.7    9/ 9
35 NE PT MANSFLD 1450   70     350/ 23/ 29 1012.5   10/10
200 E PT ISABEL  1450   80 79  150/  6/  8 1009.7   11/ 9
$$



USA.gov is the U.S. government's official web portal to all federal, state and local government web resources and services.